KUIPER-00027 (63740 NORAD) Tracking and Keplerian Element Data

This shows tracking and keplerian element data for the satellite.

Feedback or suggestion? Click here.




ElementValue
Catalog63740
NameKUIPER-00027
Epoch Orbit3585
Epoch Day354.24526379
Epoch Year2025
RAAN86.8792
Inclination51.901
Eccentricity0.0003708
Argument of Perigee253.0509
Mean Anonmoly107.0047
Mean Motion14.79970744
Decay Rate3.736E-05
L11 63740U 25088S 25354.24526379 .00003736 00000+0 51845-3 0 9994
L22 63740 51.9010 86.8792 0003708 253.0509 107.0047 14.79970744 35852



Live tracking and technical data element details for KUIPER-00027 (NORAD 63740). KUIPER-00027 can be tracked NOW for your location showing map with azimuth and elevation plus other details from your city location.







IsCatalogInMostPopularTable: catalog: 63740, numindb: 4
Update: records affected: 1



GetName: 63740 KUIPER-00027

Hit Count: updated at: Sat, 11 Apr 2026 21:27:29 GMT